This demonstration page uses our WeatherBlox Daily Observations layout. Learn more.

Left ArrowRight Arrow

Hourly Observations for March 30, 2021

Temp ( °F °C ) Dew Point ( °F °C ) Humidity (%) Winds ( mph kmh ) Pressure ( in mb ) Visibility ( mi km ) Precip ( " mm )
12:15 am 00:15 Clear 46 7.7 19 -7.3 34 34 N 25 41 29.72 1007 10 16 N/A
12:35 am 00:35 Clear 46 7.5 19 -7.4 34 34 N 22 35 29.74 1007 10 16 N/A
12:55 am 00:55 Clear 45 7.3 19 -7.3 35 35 N 23 37 29.78 1008 10 16 N/A
1:15 am 01:15 Clear 45 7 19 -7.1 36 36 N 25 41 29.79 1009 10 16 N/A
1:35 am 01:35 Mostly Cloudy 45 7 16 -8.7 32 32 N 33 54 29.81 1009 10 16 N/A
1:55 am 01:55 Cloudy 44 6.5 12 -10.9 28 28 N 25 41 29.82 1010 10 16 N/A
2:15 am 02:15 Cloudy 43 6.2 11 -11.7 27 27 N 33 54 29.85 1011 10 16 N/A
2:35 am 02:35 Cloudy 42 5.7 10 -12.1 27 27 N 26 43 29.88 1012 10 16 N/A
2:55 am 02:55 Mostly Cloudy 41 5 11 -11.5 29 29 N 25 41 29.89 1012 10 16 N/A
3:15 am 03:15 Partly Cloudy 40 4.6 11 -11.4 31 31 N 21 33 29.91 1013 10 16 N/A
3:35 am 03:35 Clear 40 4.3 12 -11 32 32 N 20 31 29.91 1013 10 16 N/A
3:55 am 03:55 Partly Cloudy 39 4 11 -11.7 31 31 N 24 39 29.92 1013 10 16 N/A
4:15 am 04:15 Clear 39 3.7 11 -11.5 32 32 N 21 33 29.92 1013 10 16 N/A
4:35 am 04:35 Clear 38 3.2 12 -11.2 34 34 N 15 24 29.94 1014 10 16 N/A
4:55 am 04:55 Clear 37 2.5 13 -10.6 38 38 N 10 17 29.96 1015 10 16 N/A
5:15 am 05:15 Clear 36 2 13 -10.7 39 39 N 13 20 29.98 1015 10 16 N/A
5:35 am 05:35 Clear 35 1.7 13 -10.6 40 40 N 12 19 29.98 1015 10 16 N/A
5:55 am 05:55 Clear 35 1.7 12 -11 39 39 N 13 20 29.99 1016 10 16 N/A
6:15 am 06:15 Clear 35 1.6 12 -11 39 39 N 9 15 30.01 1016 10 16 N/A
6:35 am 06:35 Clear 34 1 13 -10.5 42 42 N 8 13 30.03 1017 10 16 N/A
6:55 am 06:55 Clear 33 0.3 14 -10.2 46 46 NNW 5 7 30.05 1018 10 16 N/A
7:15 am 07:15 Clear 31 -0.6 15 -9.7 51 51 NW 3 6 30.06 1018 10 16 N/A
7:35 am 07:35 Sunny 31 -0.8 15 -9.5 52 52 NNW 5 7 30.07 1018 10 16 N/A
7:55 am 07:55 Mostly Cloudy 32 0.2 15 -9.2 50 50 N 5 7 30.06 1018 10 16 N/A
8:15 am 08:15 Cloudy 34 1.2 16 -8.7 48 48 NW 5 7 30.07 1018 10 16 N/A
8:35 am 08:35 Cloudy 36 2.1 17 -8.5 46 46 NNW 5 7 30.07 1018 10 16 N/A
8:55 am 08:55 Cloudy 38 3.1 17 -8.6 42 42 NNW 6 9 30.07 1018 10 16 N/A
9:15 am 09:15 Cloudy 39 3.7 15 -9.6 38 38 NNW 7 11 30.06 1018 10 16 N/A
9:35 am 09:35 Cloudy 40 4.3 14 -10 35 35 N 12 19 30.05 1018 10 16 N/A
9:55 am 09:55 Cloudy 40 4.6 14 -10.2 34 34 NNW 9 15 30.06 1018 10 16 N/A
10:15 am 10:15 Cloudy 41 5.1 13 -10.3 32 32 N 13 20 30.08 1019 10 16 N/A
10:35 am 10:35 Cloudy 41 5 14 -10.2 33 33 NNW 12 19 30.09 1019 10 16 N/A
10:55 am 10:55 Cloudy 41 5.2 14 -10.1 32 32 NNW 8 13 30.10 1019 10 16 N/A
11:15 am 11:15 Cloudy 42 5.5 14 -10.1 32 32 NNW 10 17 30.09 1019 10 16 N/A
11:35 am 11:35 Cloudy 42 5.5 14 -10.2 32 32 NW 13 20 30.10 1019 10 16 N/A
11:55 am 11:55 Mostly Cloudy 43 5.9 14 -9.8 32 32 NNW 9 15 30.11 1020 10 16 N/A
12:15 pm 12:15 Cloudy 43 6.2 15 -9.7 31 31 NW 12 19 30.11 1020 10 16 N/A
12:35 pm 12:35 Cloudy 44 6.4 15 -9.7 31 31 NNW 8 13 30.11 1019 10 16 N/A
12:55 pm 12:55 Cloudy 44 6.7 15 -9.5 31 31 NNW 8 13 30.09 1019 10 16 N/A
1:15 pm 13:15 Cloudy 45 7.1 14 -9.8 29 29 NW 9 15 30.09 1019 10 16 N/A
1:35 pm 13:35 Cloudy 46 7.6 15 -9.2 30 30 NNW 9 15 30.08 1019 10 16 N/A
1:55 pm 13:55 Mostly Cloudy 47 8.1 17 -8.5 30 30 N 13 20 30.08 1019 10 16 N/A
2:15 pm 14:15 Partly Cloudy 47 8.5 16 -9.1 28 28 NNW 9 15 30.08 1018 10 16 N/A
2:35 pm 14:35 Partly Cloudy 48 8.8 15 -9.6 26 26 NNW 14 22 30.07 1018 10 16 N/A
2:55 pm 14:55 Partly Cloudy 46 8 12 -11 25 25 NNW 13 20 30.09 1019 10 16 N/A
3:15 pm 15:15 Sunny 47 8.6 14 -9.8 26 26 NNW 12 19 30.08 1018 10 16 N/A
3:35 pm 15:35 Sunny 48 8.9 13 -10.5 24 24 N 16 26 30.07 1018 10 16 N/A
3:55 pm 15:55 Partly Cloudy 48 8.8 13 -10.4 25 25 N 8 13 30.07 1018 10 16 N/A
4:15 pm 16:15 Sunny 49 9.4 11 -11.7 21 21 NNW 12 19 30.07 1018 10 16 N/A
4:35 pm 16:35 Sunny 49 9.7 12 -11 22 22 NNW 13 20 30.07 1018 10 16 N/A
4:55 pm 16:55 Sunny 49 9.7 9 -12.9 19 19 NNW 14 22 30.07 1018 10 16 N/A
5:15 pm 17:15 Sunny 49 9.5 9 -13 19 19 WNW 10 17 30.07 1018 10 16 N/A
5:35 pm 17:35 Sunny 48 9 9 -12.8 20 20 NNW 9 15 30.08 1019 10 16 N/A
5:55 pm 17:55 Sunny 48 8.8 8 -13.3 20 20 NNW 7 11 30.09 1019 10 16 N/A
6:15 pm 18:15 Partly Cloudy 48 8.9 9 -12.7 20 20 NW 10 17 30.09 1019 10 16 N/A
6:35 pm 18:35 Sunny 48 9.1 10 -12.3 21 21 NW 7 11 30.10 1019 10 16 N/A
6:55 pm 18:55 Partly Cloudy 48 8.7 9 -12.6 21 21 NNW 8 13 30.10 1019 10 16 N/A
7:15 pm 19:15 Partly Cloudy 48 8.8 10 -12.2 21 21 NNW 8 13 30.11 1020 10 16 N/A
7:35 pm 19:35 Partly Cloudy 47 8.6 10 -12.1 22 22 NNW 7 11 30.13 1020 10 16 N/A
7:55 pm 19:55 Partly Cloudy 46 7.6 10 -12.1 23 23 NNW 3 6 30.14 1021 10 16 N/A
8:15 pm 20:15 Partly Cloudy 44 6.6 11 -11.5 26 26 NNW 5 7 30.16 1021 10 16 N/A
8:35 pm 20:35 Clear 42 5.4 12 -11.1 30 30 NW 6 9 30.18 1022 10 16 N/A
8:55 pm 20:55 Clear 39 4 12 -11 33 33 N 8 13 30.21 1023 10 16 N/A
9:15 pm 21:15 Clear 40 4.4 11 -11.7 30 30 NNW 7 11 30.22 1023 10 16 N/A
9:35 pm 21:35 Clear 39 4 12 -11.2 32 32 NNW 8 13 30.24 1024 10 16 N/A
9:55 pm 21:55 Partly Cloudy 39 3.7 12 -11.2 33 33 NNW 7 11 30.26 1025 10 16 N/A
10:15 pm 22:15 Partly Cloudy 37 2.7 12 -11.2 35 35 NNW 6 9 30.27 1025 10 16 N/A
10:35 pm 22:35 Clear 35 1.6 13 -10.6 40 40 NW 6 9 30.29 1026 10 16 N/A
10:55 pm 22:55 Clear 33 0.7 13 -10.5 43 43 NW 7 11 30.31 1026 10 16 N/A
11:15 pm 23:15 Clear 32 0.2 13 -10.3 46 46 WNW 7 11 30.32 1027 10 16 N/A
11:35 pm 23:35 Partly Cloudy 31 -0.5 14 -9.9 49 49 NW 7 11 30.34 1027 10 16 N/A
11:55 pm 23:55 Mostly Cloudy 32 undefined 14 -10 47 47 N 3 6 30.35 1028 10 16 N/A

Powered by AerisWeather